#�ϑ�����,���ϕ���,���ϕ���,�ő啗��,�ő啗����������,�ő�u�ԕ���,�ő�u�ԕ�����������
#(�N����),(m/s)   ,(16����),(m/s)   ,(16����)        ,(m/s)       ,(16����)            
2012/8/26 5:04,1,1,1,1,1.1,1
2012/8/26 5:05,0.9,16,1.1,16,1.4,15
2012/8/26 5:06,0.8,1,0.8,16,1.1,16
2012/8/26 5:07,0.8,1,0.8,16,1.4,4
2012/8/26 5:08,0.8,2,0.8,16,1.3,2
2012/8/26 5:09,0.7,2,0.8,16,1,1
2012/8/26 5:10,0.7,2,0.7,16,0.8,1
2012/8/26 5:11,0.6,2,0.7,16,0.8,16
2012/8/26 5:12,0.7,2,0.7,16,1.1,16
2012/8/26 5:13,0.7,2,0.7,16,1.4,1
2012/8/26 5:14,0.6,2,0.7,16,0.8,16
2012/8/26 5:15,0.6,2,0.6,1,1,16
2012/8/26 5:16,0.6,1,0.6,1,1.6,16
2012/8/26 5:17,0.7,1,0.7,1,1.8,15
2012/8/26 5:18,0.7,1,0.7,2,1,16
2012/8/26 5:19,0.7,1,0.7,2,1.3,16
2012/8/26 5:20,0.7,1,0.7,2,1.4,16
2012/8/26 5:21,0.8,16,0.8,1,1.5,16
2012/8/26 5:22,0.9,16,0.9,16,1.6,16
2012/8/26 5:23,0.9,16,0.9,16,1.8,15
2012/8/26 5:24,1,16,1,16,1.3,16
2012/8/26 5:25,1,16,1,16,1.1,1
2012/8/26 5:26,1,16,1,16,1.4,16
2012/8/26 5:27,0.9,16,1,16,0.9,16
2012/8/26 5:28,0.9,16,0.9,16,0.9,1
2012/8/26 5:29,0.9,16,0.9,16,0.8,2
2012/8/26 5:30,0.8,16,0.8,16,0.4,1
2012/8/26 5:31,0.7,1,0.8,16,0.5,3
2012/8/26 5:32,0.6,1,0.7,16,1,1
2012/8/26 5:33,0.6,1,0.6,16,1.3,16
2012/8/26 5:34,0.5,1,0.6,16,0.8,1
2012/8/26 5:35,0.5,1,0.5,16,0.4,2
2012/8/26 5:36,0.4,1,0.5,16,0.1,4
2012/8/26 5:37,0.3,2,0.4,16,0.1,4
2012/8/26 5:38,0.3,2,0.3,16,0.5,9
2012/8/26 5:39,0.3,2,0.3,16,0.8,9
2012/8/26 5:40,0.4,2,0.4,16,1.1,9
2012/8/26 5:41,0.4,3,0.4,1,1.1,9
2012/8/26 5:42,0.4,6,0.4,1,0.8,7
2012/8/26 5:43,0.3,7,0.4,1,0.6,7
2012/8/26 5:44,0.3,7,0.3,1,0.4,7
2012/8/26 5:45,0.3,8,0.3,1,0,7
2012/8/26 5:46,0.3,8,0.3,1,0,7
2012/8/26 5:47,0.3,8,0.3,2,0,7
2012/8/26 5:48,0.3,8,0.3,2,0,7
2012/8/26 5:49,0.2,7,0.3,2,0,7
2012/8/26 5:50,0.2,7,0.2,2,0,7
2012/8/26 5:51,0.1,7,0.1,3,0.1,7
2012/8/26 5:52,0.1,7,0.1,6,0.1,7
2012/8/26 5:53,0,7,0.1,7,0.1,7
2012/8/26 5:54,0,7,0,7,0.1,7
2012/8/26 5:55,0,7,0,8,0.1,7
2012/8/26 5:56,0,7,0,8,0,7
2012/8/26 5:57,0,7,0,8,0.1,7
2012/8/26 5:58,0,7,0,8,0.1,7
2012/8/26 5:59,0,7,0,7,0.1,7
2012/8/26 6:00,0,7,0,7,0.1,7
2012/8/26 6:01,0,7,0,7,0.3,7
2012/8/26 6:02,0,7,0,7,0.5,7
2012/8/26 6:03,0.1,7,0.1,7,0.5,7
2012/8/26 6:04,0.1,7,0.1,7,1.4,8
2012/8/26 6:05,0.2,7,0.2,7,1.8,8
2012/8/26 6:06,0.4,7,0.4,7,1.8,7
2012/8/26 6:07,0.4,8,0.4,7,0.9,10
2012/8/26 6:08,0.4,8,0.4,7,0.9,10
2012/8/26 6:09,0.4,8,0.4,7,0.5,10
2012/8/26 6:10,0.5,8,0.5,8,1.1,10
2012/8/26 6:11,0.5,9,0.5,8,1,9
2012/8/26 6:12,0.5,9,0.5,8,0.9,9
2012/8/26 6:13,0.6,9,0.6,9,0.9,7
2012/8/26 6:14,0.6,9,0.6,9,1,9
2012/8/26 6:15,0.5,9,0.6,9,0.5,4
2012/8/26 6:16,0.4,9,0.5,9,0.4,3
2012/8/26 6:17,0.3,8,0.3,9,0.1,3
2012/8/26 6:18,0.3,8,0.3,9,0.1,9
2012/8/26 6:19,0.3,8,0.3,9,0.9,16
2012/8/26 6:20,0.4,7,0.4,9,1.1,15
2012/8/26 6:21,0.3,6,0.4,9,0.6,16
2012/8/26 6:22,0.3,2,0.3,9,0.6,15
2012/8/26 6:23,0.3,1,0.3,9,0.5,15
2012/8/26 6:24,0.3,16,0.3,9,0.1,11
2012/8/26 6:25,0.2,15,0.3,9,0,14
2012/8/26 6:26,0.3,14,0.3,7,1.5,9
2012/8/26 6:27,0.4,14,0.4,7,1.3,8
2012/8/26 6:28,0.5,14,0.5,14,1.1,8
2012/8/26 6:29,0.5,12,0.5,14,1,8
2012/8/26 6:30,0.4,11,0.5,14,0.5,9
2012/8/26 6:31,0.4,10,0.4,14,0.1,1
2012/8/26 6:32,0.4,10,0.4,14,0.6,16
2012/8/26 6:33,0.5,10,0.5,14,1.3,16
2012/8/26 6:34,0.6,10,0.6,10,0.9,16
2012/8/26 6:35,0.6,10,0.6,10,1,15
2012/8/26 6:36,0.6,13,0.6,10,0.6,14
2012/8/26 6:37,0.5,14,0.6,10,0.6,15
2012/8/26 6:38,0.4,14,0.5,10,0.4,13
2012/8/26 6:39,0.4,14,0.4,10,0.3,13
2012/8/26 6:40,0.4,14,0.4,10,0.5,9
2012/8/26 6:41,0.5,14,0.5,10,2,8
2012/8/26 6:42,0.7,13,0.7,14,2.6,8
2012/8/26 6:43,0.7,12,0.7,14,1.8,7
2012/8/26 6:44,0.7,11,0.7,14,1.4,10
2012/8/26 6:45,0.8,11,0.8,11,1.9,10
2012/8/26 6:46,0.8,10,0.8,11,1.6,9
2012/8/26 6:47,0.8,10,0.8,11,1.1,9
2012/8/26 6:48,0.8,9,0.8,11,1.3,7
2012/8/26 6:49,0.9,9,0.9,9,0.9,7
2012/8/26 6:50,0.9,9,0.9,9,0.8,10
2012/8/26 6:51,0.8,9,0.9,9,0.9,10
2012/8/26 6:52,0.7,10,0.8,9,0.9,9
2012/8/26 6:53,0.6,10,0.7,9,0.9,10
2012/8/26 6:54,0.6,10,0.6,9,1,10
2012/8/26 6:55,0.5,10,0.6,9,1.1,10
2012/8/26 6:56,0.5,10,0.5,9,0.9,10
2012/8/26 6:57,0.5,10,0.5,9,1.1,9
2012/8/26 6:58,0.5,10,0.5,9,0.9,10
2012/8/26 6:59,0.5,10,0.5,9,0.4,9
2012/8/26 7:00,0.5,10,0.5,9,0.5,13
2012/8/26 7:01,0.4,10,0.5,9,0.8,9
2012/8/26 7:02,0.4,10,0.4,10,1.5,8
2012/8/26 7:03,0.4,10,0.4,10,2,9
2012/8/26 7:04,0.5,10,0.5,10,1.5,9
2012/8/26 7:05,0.4,10,0.5,10,1,8
2012/8/26 7:06,0.5,11,0.5,10,1.5,11
2012/8/26 7:07,0.5,11,0.5,10,1,11
2012/8/26 7:08,0.4,11,0.4,10,0.6,13
2012/8/26 7:09,0.5,11,0.5,10,1.9,9
2012/8/26 7:10,0.6,11,0.6,11,0.8,12
2012/8/26 7:11,0.6,11,0.6,11,0.8,15
2012/8/26 7:12,0.6,10,0.6,11,1.4,10
2012/8/26 7:13,0.6,10,0.6,11,1.3,9
2012/8/26 7:14,0.6,11,0.6,11,1.5,9
2012/8/26 7:15,0.7,11,0.7,11,1.4,10
2012/8/26 7:16,0.7,10,0.7,11,1.5,11
2012/8/26 7:17,0.7,10,0.7,11,1.3,11
2012/8/26 7:18,0.7,10,0.7,11,1,10
2012/8/26 7:19,0.7,10,0.7,11,2,9
2012/8/26 7:20,0.8,10,0.8,10,1.8,9
2012/8/26 7:21,0.9,10,0.9,10,1.9,9
2012/8/26 7:22,0.9,10,0.9,10,1.9,9
2012/8/26 7:23,1,10,1,10,1.8,9
2012/8/26 7:24,1,9,1,10,2.1,9
2012/8/26 7:25,1,9,1,10,2.1,10
2012/8/26 7:26,1,9,1,10,1.9,8
2012/8/26 7:27,1.1,9,1.1,9,1.9,8
2012/8/26 7:28,1.1,9,1.1,9,1.8,9
2012/8/26 7:29,1.1,9,1.1,9,1.9,9
2012/8/26 7:30,1.1,9,1.1,9,2.2,8
2012/8/26 7:31,1.1,9,1.2,9,2.1,8
2012/8/26 7:32,1.1,9,1.2,9,2,8
2012/8/26 7:33,1.1,9,1.1,9,2.2,8
2012/8/26 7:34,1.1,9,1.2,9,2.2,7
2012/8/26 7:35,1.1,9,1.1,9,1,11
2012/8/26 7:36,1.1,9,1.1,9,3.1,8
2012/8/26 7:37,1.2,9,1.2,9,2.9,9
2012/8/26 7:38,1.1,9,1.2,9,1.8,9
2012/8/26 7:39,1.1,9,1.1,9,2.6,8
2012/8/26 7:40,1.2,9,1.2,9,2.9,8
2012/8/26 7:41,1.2,9,1.2,9,2,9
2012/8/26 7:42,1.2,9,1.2,9,1.9,9
2012/8/26 7:43,1.2,9,1.2,9,2,10
2012/8/26 7:44,1.2,9,1.2,9,2.7,8
2012/8/26 7:45,1.3,9,1.3,9,1.8,9
2012/8/26 7:46,1.2,9,1.2,9,1.8,9
2012/8/26 7:47,1.1,9,1.2,9,1.8,8
2012/8/26 7:48,1.2,9,1.2,9,2.2,8
2012/8/26 7:49,1.3,9,1.3,9,2.2,9
2012/8/26 7:50,1.2,9,1.3,9,1.6,8
2012/8/26 7:51,1.1,9,1.2,9,2,9
2012/8/26 7:52,1,9,1.1,9,0.9,8
2012/8/26 7:53,1,9,1,9,0.9,9
2012/8/26 7:54,0.9,9,1,9,1.5,9
2012/8/26 7:55,0.9,9,1,9,2.2,9
2012/8/26 7:56,1,9,1,9,2,10
2012/8/26 7:57,1,9,1,9,2.5,9
2012/8/26 7:58,1,9,1,9,2.1,8
2012/8/26 7:59,0.9,9,1,9,1.9,10
2012/8/26 8:00,0.9,9,0.9,9,1.4,9
2012/8/26 8:01,0.9,9,0.9,9,2,9
2012/8/26 8:02,1,9,1,9,1.8,9
2012/8/26 8:03,1,9,1,9,1.3,11
2012/8/26 8:04,1,9,1,9,0.5,9
2012/8/26 8:05,0.9,9,1,9,1.6,10
2012/8/26 8:06,0.9,9,0.9,9,1.6,10
2012/8/26 8:07,0.8,9,0.9,9,1.3,11
2012/8/26 8:08,0.8,9,0.8,9,1.3,13
2012/8/26 8:09,0.8,9,0.8,9,2,9
2012/8/26 8:10,0.9,9,0.9,9,4.3,8
2012/8/26 8:11,0.9,9,0.9,9,2.7,8
2012/8/26 8:12,0.9,9,0.9,9,1.8,9
2012/8/26 8:13,1,8,1,9,2.4,6
2012/8/26 8:14,1.1,8,1.1,8,1.6,6
2012/8/26 8:15,1.1,7,1.1,8,1.8,6
2012/8/26 8:16,1.2,7,1.2,7,2,6
2012/8/26 8:17,1.3,7,1.3,7,2.1,5
2012/8/26 8:18,1.3,7,1.3,7,1.5,5
2012/8/26 8:19,1.3,6,1.3,7,1.8,4
2012/8/26 8:20,1.2,6,1.3,7,1.4,5
2012/8/26 8:21,1.1,6,1.2,7,1.1,7
2012/8/26 8:22,1.2,5,1.2,7,2.6,4
2012/8/26 8:23,1.3,5,1.3,7,3.1,5
2012/8/26 8:24,1.3,5,1.3,7,3.1,3
2012/8/26 8:25,1.3,5,1.3,7,1.8,3
2012/8/26 8:26,1.4,5,1.4,5,3.3,6
2012/8/26 8:27,1.4,5,1.4,5,2.2,7
2012/8/26 8:28,1.5,5,1.5,5,2.2,6
2012/8/26 8:29,1.5,5,1.5,5,2.2,4
2012/8/26 8:30,1.5,5,1.5,5,2.9,4
2012/8/26 8:31,1.7,5,1.7,5,3.1,6
2012/8/26 8:32,1.8,5,1.8,5,3.6,6
2012/8/26 8:33,1.7,5,1.8,5,2.9,7
2012/8/26 8:34,1.6,6,1.6,5,1.5,9
2012/8/26 8:35,1.7,6,1.7,5,3.9,5
2012/8/26 8:36,1.6,6,1.7,5,3,7
2012/8/26 8:37,1.5,6,1.6,5,1.5,5
2012/8/26 8:38,1.6,6,1.6,5,2.9,5
2012/8/26 8:39,1.5,6,1.6,5,2.9,5
2012/8/26 8:40,1.6,6,1.6,5,2.9,4
2012/8/26 8:41,1.6,6,1.6,5,3.7,3
2012/8/26 8:42,1.6,6,1.6,5,3.5,4
2012/8/26 8:43,1.7,5,1.7,6,4.3,2
2012/8/26 8:44,1.9,5,1.9,5,5.1,4
2012/8/26 8:45,1.9,5,2,5,3,3
2012/8/26 8:46,2,4,2,5,3.3,4
2012/8/26 8:47,2.1,4,2.1,4,4.1,4
2012/8/26 8:48,2.2,4,2.2,4,3.8,4
2012/8/26 8:49,2.3,4,2.3,4,2.6,3
2012/8/26 8:50,2.3,4,2.3,4,2.9,4
2012/8/26 8:51,2.2,4,2.3,4,2.6,4
2012/8/26 8:52,2.1,4,2.2,4,2.1,6
2012/8/26 8:53,2,4,2.1,4,2,8
2012/8/26 8:54,1.8,4,1.9,4,1.8,9
2012/8/26 8:55,1.6,4,1.8,4,1.5,6
2012/8/26 8:56,1.5,5,1.6,4,1.1,6
2012/8/26 8:57,1.4,5,1.5,4,2.2,7
2012/8/26 8:58,1.3,5,1.3,4,3.3,6
2012/8/26 8:59,1.4,5,1.4,4,3.9,6
2012/8/26 9:00,1.5,5,1.5,4,3.7,4
2012/8/26 9:01,1.6,5,1.6,4,4.4,5
2012/8/26 9:02,1.7,5,1.7,4,4.4,5
2012/8/26 9:03,1.9,5,1.9,4,4.2,6
2012/8/26 9:04,2,5,2,5,3.6,5
2012/8/26 9:05,2.2,5,2.2,5,4.1,5
2012/8/26 9:06,2.3,5,2.3,5,3.5,6
2012/8/26 9:07,2.5,5,2.5,5,3.9,7
2012/8/26 9:08,2.5,5,2.6,5,4.2,6
2012/8/26 9:09,2.5,5,2.5,5,3.1,7
2012/8/26 9:10,2.3,5,2.5,5,2.4,4
2012/8/26 9:11,2.2,5,2.3,5,2.6,4
2012/8/26 9:12,2.1,5,2.2,5,2.9,5
2012/8/26 9:13,2.1,5,2.1,5,3,6
2012/8/26 9:14,2,5,2.1,5,2.7,5
2012/8/26 9:15,1.8,5,2,5,2,4
2012/8/26 9:16,1.8,5,1.9,5,2.4,7
2012/8/26 9:17,1.6,5,1.8,5,1,6
2012/8/26 9:18,1.5,5,1.6,5,3,4
2012/8/26 9:19,1.5,4,1.5,5,3.2,4
2012/8/26 9:20,1.7,4,1.7,5,4.7,5
2012/8/26 9:21,1.8,5,1.8,5,4.5,6
2012/8/26 9:22,2,5,2,5,3.6,6
2012/8/26 9:23,1.9,5,1.9,5,2.1,6
2012/8/26 9:24,1.8,5,1.9,5,2,5
2012/8/26 9:25,1.8,5,1.8,5,2.7,3
2012/8/26 9:26,1.8,5,1.8,5,2.9,3
2012/8/26 9:27,1.9,5,1.9,5,3,3
2012/8/26 9:28,2,5,2,5,4.9,5
2012/8/26 9:29,2,5,2,5,2.7,6
2012/8/26 9:30,1.9,5,2,5,3.2,7
2012/8/26 9:31,1.7,5,1.8,5,1.8,8
2012/8/26 9:32,1.6,6,1.6,5,3.1,8
2012/8/26 9:33,1.5,6,1.6,5,2.5,8
2012/8/26 9:34,1.7,7,1.7,5,3.6,8
2012/8/26 9:35,1.9,7,1.9,5,5.1,8
2012/8/26 9:36,1.9,8,1.9,5,2.7,7
2012/8/26 9:37,1.9,8,1.9,5,2.6,8
2012/8/26 9:38,1.7,8,1.9,5,2.2,8
2012/8/26 9:39,1.7,8,1.7,5,2.7,9
2012/8/26 9:40,1.6,8,1.7,7,3.1,5
2012/8/26 9:41,1.8,8,1.8,7,3.9,5
2012/8/26 9:42,1.7,7,1.8,7,2.6,5
2012/8/26 9:43,1.7,7,1.7,7,2,10
2012/8/26 9:44,1.6,7,1.7,7,1.9,8
2012/8/26 9:45,1.4,7,1.6,7,1.9,8
2012/8/26 9:46,1.3,7,1.4,8,2.4,5
2012/8/26 9:47,1.4,7,1.4,8,3.2,7
2012/8/26 9:48,1.5,6,1.5,8,3.8,8
2012/8/26 9:49,1.6,6,1.6,8,4.9,5
2012/8/26 9:50,1.7,6,1.7,8,5.1,5
2012/8/26 9:51,1.9,7,1.9,7,5.4,7
2012/8/26 9:52,2.1,7,2.1,7,3.9,6
2012/8/26 9:53,2.3,7,2.3,7,4.8,6
2012/8/26 9:54,2.5,6,2.5,6,4.7,6
2012/8/26 9:55,2.6,6,2.6,6,3.9,6
2012/8/26 9:56,2.7,6,2.7,6,2.9,6
2012/8/26 9:57,2.5,6,2.7,6,1,6
2012/8/26 9:58,2.4,6,2.5,6,2.9,5
2012/8/26 9:59,2.4,6,2.4,6,3.6,10
2012/8/26 10:00,2.4,7,2.4,6,5.2,8
2012/8/26 10:01,2.3,7,2.4,6,4.8,8
2012/8/26 10:02,2.2,7,2.3,6,4.8,9
2012/8/26 10:03,2.2,7,2.3,6,5.7,8
2012/8/26 10:04,2.3,7,2.4,6,5.8,8
2012/8/26 10:05,2.3,8,2.3,6,4.8,8
2012/8/26 10:06,2.3,8,2.3,6,2.4,7
2012/8/26 10:07,2.3,8,2.3,6,2.2,9
2012/8/26 10:08,2.3,8,2.4,6,2.6,8
2012/8/26 10:09,2.3,8,2.4,6,4.4,7
2012/8/26 10:10,2.3,8,2.3,7,4.8,8
2012/8/26 10:11,2.3,8,2.3,7,5,7
2012/8/26 10:12,2.3,8,2.3,7,4.8,6
2012/8/26 10:13,2.2,8,2.3,7,3.6,5
2012/8/26 10:14,2.1,7,2.2,8,3,6
2012/8/26 10:15,1.9,7,2.1,8,2.2,7
2012/8/26 10:16,1.9,7,1.9,8,3.2,7
2012/8/26 10:17,2.2,7,2.2,8,5.2,5
2012/8/26 10:18,2.3,6,2.3,8,3.7,5
2012/8/26 10:19,2.1,6,2.3,8,1.6,5
2012/8/26 10:20,2,6,2.1,8,3,5
2012/8/26 10:21,1.8,6,1.9,8,2.4,6
2012/8/26 10:22,1.7,6,1.8,8,2,4
2012/8/26 10:23,1.6,6,1.6,7,1.6,7
2012/8/26 10:24,1.6,6,1.6,7,4.4,6
2012/8/26 10:25,1.7,6,1.7,7,3.8,6
2012/8/26 10:26,1.7,6,1.8,7,3.9,8
2012/8/26 10:27,1.7,6,1.8,7,4.1,6
2012/8/26 10:28,1.8,6,1.8,6,6.1,6
2012/8/26 10:29,2,6,2,6,4.8,6
2012/8/26 10:30,2.1,6,2.1,6,2.9,6
2012/8/26 10:31,2.2,6,2.2,6,4.2,8
2012/8/26 10:32,2.5,6,2.5,6,6.4,8
2012/8/26 10:33,2.6,6,2.6,6,4.3,8
2012/8/26 10:34,2.6,6,2.7,6,3.8,6
2012/8/26 10:35,2.7,6,2.7,6,4.4,6
2012/8/26 10:36,2.7,6,2.7,6,3.7,6
2012/8/26 10:37,2.6,6,2.7,6,3,6
2012/8/26 10:38,2.4,7,2.6,6,1.8,6
2012/8/26 10:39,2.2,7,2.3,6,3.1,8
2012/8/26 10:40,2.2,7,2.2,6,2.5,4
2012/8/26 10:41,2,7,2.2,6,2.1,10
2012/8/26 10:42,1.6,7,2,6,1.4,9
2012/8/26 10:43,1.7,7,1.7,6,5.7,8
2012/8/26 10:44,1.8,7,1.8,6,6.3,8
2012/8/26 10:45,1.8,7,1.8,6,6.2,8
2012/8/26 10:46,1.9,7,1.9,6,5.2,7
2012/8/26 10:47,2.2,8,2.2,6,5.7,8
2012/8/26 10:48,2.4,8,2.4,8,6.1,9
2012/8/26 10:49,2.5,8,2.5,8,3.5,8
2012/8/26 10:50,2.6,8,2.6,8,3.7,8
2012/8/26 10:51,2.8,8,2.8,8,4.7,8
2012/8/26 10:52,3,8,3,8,3.3,7
2012/8/26 10:53,3,8,3,8,3.2,8
2012/8/26 10:54,2.8,8,3,8,3.2,8
2012/8/26 10:55,2.7,8,2.8,8,3.2,9
2012/8/26 10:56,2.5,8,2.7,8,2.1,8
2012/8/26 10:57,2.1,8,2.5,8,1.9,9
2012/8/26 10:58,1.9,8,2.1,8,2.6,10
2012/8/26 10:59,2,8,2,8,4.1,8
2012/8/26 11:00,2,8,2,8,4.3,6
2012/8/26 11:01,2,8,2,8,3,6
2012/8/26 11:02,1.8,8,1.9,8,2.4,9
2012/8/26 11:03,1.6,8,1.8,8,2.4,10
2012/8/26 11:04,1.6,8,1.6,8,1.8,10
2012/8/26 11:05,1.5,8,1.5,8,2,7
2012/8/26 11:06,1.5,8,1.5,8,3.3,8
2012/8/26 11:07,1.7,8,1.7,8,4.2,7
2012/8/26 11:08,1.8,8,1.8,8,4.4,8
2012/8/26 11:09,1.9,8,1.9,8,4.8,6
2012/8/26 11:10,1.8,8,1.9,8,5.1,7
2012/8/26 11:11,1.8,8,1.8,8,3,7
2012/8/26 11:12,2,7,2,7,4.7,7
2012/8/26 11:13,2.1,7,2.1,7,3.9,6
2012/8/26 11:14,2.2,7,2.2,7,3.1,6
2012/8/26 11:15,2.4,6,2.4,6,4.8,5
2012/8/26 11:16,2.5,6,2.5,6,4.1,6
2012/8/26 11:17,2.5,5,2.6,6,3.9,5
2012/8/26 11:18,2.4,5,2.5,6,2.4,4
2012/8/26 11:19,2.3,5,2.4,6,3.3,2
2012/8/26 11:20,2.4,5,2.4,6,3.7,3
2012/8/26 11:21,2.4,5,2.4,6,2.7,3
2012/8/26 11:22,2.3,4,2.4,6,2.7,2
2012/8/26 11:23,2.2,4,2.3,6,3.1,7
2012/8/26 11:24,2.3,4,2.3,6,4.7,8
2012/8/26 11:25,2.4,5,2.4,6,6.5,8
2012/8/26 11:26,2.4,5,2.4,6,5.7,6
2012/8/26 11:27,2.4,5,2.4,5,3.9,10
2012/8/26 11:28,2.4,6,2.4,5,3.3,7
2012/8/26 11:29,2.4,6,2.4,5,3.2,8
2012/8/26 11:30,2.3,7,2.3,5,2.9,7
2012/8/26 11:31,2.2,7,2.3,5,1.9,8
2012/8/26 11:32,2.1,7,2.2,4,1.4,7
2012/8/26 11:33,2.1,8,2.1,4,2.5,9
2012/8/26 11:34,2,8,2.1,4,3.6,9
2012/8/26 11:35,2,8,2,5,5.4,8
2012/8/26 11:36,1.9,8,2,5,4.5,8
2012/8/26 11:37,2,8,2,5,4.8,8
2012/8/26 11:38,2.1,8,2.1,6,4.5,5
2012/8/26 11:39,2.2,8,2.2,6,4.5,9
2012/8/26 11:40,2.3,8,2.3,7,4.5,7
2012/8/26 11:41,2.5,8,2.5,8,5.2,8
2012/8/26 11:42,2.9,8,2.9,8,6.7,8
2012/8/26 11:43,3.2,8,3.2,8,8.4,7
2012/8/26 11:44,3.3,8,3.3,8,5.5,7
2012/8/26 11:45,3.2,8,3.3,8,5.2,7
2012/8/26 11:46,3.2,8,3.3,8,5.1,7
2012/8/26 11:47,3.2,8,3.3,8,4.1,8
2012/8/26 11:48,3.2,8,3.3,8,4.4,7
2012/8/26 11:49,3.1,8,3.2,8,4.1,8
2012/8/26 11:50,3,8,3.1,8,3.2,7
2012/8/26 11:51,3,7,3,8,4.5,6
2012/8/26 11:52,3,7,3,8,6,6
2012/8/26 11:53,2.9,7,3,8,5.4,5
2012/8/26 11:54,2.9,7,2.9,8,4.4,6
2012/8/26 11:55,3,7,3,8,4.9,6
2012/8/26 11:56,2.9,7,3,8,3.3,7
2012/8/26 11:57,2.8,7,2.9,8,3.3,9
2012/8/26 11:58,2.7,7,2.8,8,3.6,9
2012/8/26 11:59,2.8,7,2.8,8,5.1,8
2012/8/26 12:00,2.8,7,2.8,8,5.4,8
2012/8/26 12:01,2.8,7,2.9,7,5.4,7
2012/8/26 12:02,2.5,7,2.8,7,1.4,7
2012/8/26 12:03,2.3,7,2.4,7,2.7,7
2012/8/26 12:04,2.2,7,2.3,7,3.9,8
2012/8/26 12:05,2.2,7,2.2,7,4.7,9
2012/8/26 12:06,2.3,8,2.3,7,6.3,8
2012/8/26 12:07,2.4,8,2.4,7,3.8,7
2012/8/26 12:08,2.5,8,2.5,7,3.7,7
2012/8/26 12:09,2.5,8,2.5,7,2.7,7
2012/8/26 12:10,2.3,8,2.4,7,3.1,9
2012/8/26 12:11,2.3,8,2.3,7,5.2,8
2012/8/26 12:12,2.4,8,2.4,8,3.7,8
2012/8/26 12:13,2.4,8,2.4,8,2.7,9
2012/8/26 12:14,2.4,8,2.4,8,3.6,8
2012/8/26 12:15,2.3,8,2.4,8,3.8,8
2012/8/26 12:16,2.2,7,2.3,8,5,6
2012/8/26 12:17,2.3,7,2.3,8,4.9,6
2012/8/26 12:18,2.4,7,2.4,8,6.4,6
2012/8/26 12:19,2.5,7,2.5,7,4.7,6
2012/8/26 12:20,2.6,7,2.6,7,3,7
2012/8/26 12:21,2.5,7,2.6,7,2.5,8
2012/8/26 12:22,2.6,7,2.6,7,4.2,6
2012/8/26 12:23,2.7,7,2.7,7,4.5,6
2012/8/26 12:24,2.9,6,2.9,6,4.9,6
2012/8/26 12:25,3.1,6,3.1,6,5.6,6
2012/8/26 12:26,3.2,6,3.2,6,4.9,5
2012/8/26 12:27,3.1,6,3.2,6,5,6
2012/8/26 12:28,3.1,6,3.1,6,4.5,7
2012/8/26 12:29,3,6,3.1,6,4.4,8
2012/8/26 12:30,2.9,6,3,6,2.5,4
2012/8/26 12:31,2.9,6,2.9,6,3.3,3
2012/8/26 12:32,2.8,6,2.9,6,3.9,6
2012/8/26 12:33,2.8,6,2.8,6,4.2,8
2012/8/26 12:34,2.6,6,2.8,6,4.1,8
2012/8/26 12:35,2.5,6,2.6,6,4.8,7
2012/8/26 12:36,2.5,7,2.5,6,4.1,7
2012/8/26 12:37,2.4,7,2.5,6,4.3,6
2012/8/26 12:38,2.4,6,2.5,6,4.5,5
2012/8/26 12:39,2.5,6,2.5,6,4.4,6
2012/8/26 12:40,2.6,6,2.6,6,4.3,7
2012/8/26 12:41,2.7,7,2.7,6,3.7,8
2012/8/26 12:42,2.8,7,2.8,6,4.1,5
2012/8/26 12:43,2.7,6,2.8,6,3.1,3
2012/8/26 12:44,2.7,6,2.7,7,3,8
2012/8/26 12:45,2.4,6,2.7,7,2.1,8
2012/8/26 12:46,2.3,6,2.4,7,2.6,8
2012/8/26 12:47,2.2,6,2.3,7,3,7
2012/8/26 12:48,2.1,6,2.2,7,3.9,4
2012/8/26 12:49,2,6,2.1,7,3.2,6
2012/8/26 12:50,2,6,2,7,4.1,6
2012/8/26 12:51,2,6,2,7,4.1,4
2012/8/26 12:52,2.1,6,2.1,7,4.7,6
2012/8/26 12:53,2.1,6,2.1,6,3.8,6
2012/8/26 12:54,2.2,6,2.2,6,3.3,5
2012/8/26 12:55,2.2,5,2.2,6,2.1,5
2012/8/26 12:56,2.1,5,2.2,6,1.4,8
2012/8/26 12:57,2,6,2.1,6,1.3,8
2012/8/26 12:58,1.9,6,2,6,2.6,6
2012/8/26 12:59,1.8,6,1.9,6,1.3,16
2012/8/26 13:00,1.6,5,1.7,6,2.9,2
2012/8/26 13:01,1.5,5,1.6,6,2.2,5
2012/8/26 13:02,1.4,5,1.5,6,3.6,3
2012/8/26 13:03,1.5,5,1.5,6,4.7,5
2012/8/26 13:04,1.7,5,1.7,6,5.4,5
2012/8/26 13:05,1.8,5,1.8,5,4.2,4
2012/8/26 13:06,1.9,4,1.9,6,3.2,4
2012/8/26 13:07,2.1,4,2.1,4,2.5,2
2012/8/26 13:08,2.1,4,2.1,4,2.2,8
2012/8/26 13:09,2.1,4,2.1,4,0.8,12
2012/8/26 13:10,2,4,2.1,4,1.1,4
2012/8/26 13:11,1.9,4,2,4,1.9,16
2012/8/26 13:12,1.8,4,1.9,4,3,3
2012/8/26 13:13,1.8,3,1.8,4,3.5,3
2012/8/26 13:14,1.6,3,1.7,4,3,3
2012/8/26 13:15,1.4,3,1.5,4,1.5,3
2012/8/26 13:16,1.2,4,1.4,4,1.1,6
2012/8/26 13:17,1.1,3,1.2,4,1.9,14
2012/8/26 13:18,1.1,3,1.1,4,2.1,16
2012/8/26 13:19,1,3,1.1,4,0.6,7
2012/8/26 13:20,1,2,1,4,0.8,1
2012/8/26 13:21,1,3,1,4,0.9,2
2012/8/26 13:22,0.9,3,1,4,1.6,10
2012/8/26 13:23,0.7,3,0.9,3,1.4,6
2012/8/26 13:24,0.7,3,0.7,3,2.7,6
2012/8/26 13:25,0.8,4,0.8,3,3.8,8
2012/8/26 13:26,0.9,5,0.9,4,3.5,8
2012/8/26 13:27,1,6,1,3,1.9,9
2012/8/26 13:28,0.9,6,1,3,2.1,5
2012/8/26 13:29,1,6,1,3,2,6
2012/8/26 13:30,1.1,6,1.1,6,1.5,6
2012/8/26 13:31,1.1,6,1.1,6,1.3,3
2012/8/26 13:32,1.2,6,1.2,6,2.1,5
2012/8/26 13:33,1.4,6,1.4,6,3.8,4
2012/8/26 13:34,1.4,6,1.4,6,4.7,5
2012/8/26 13:35,1.5,5,1.5,6,3.9,6
2012/8/26 13:36,1.6,5,1.6,5,4.5,6
2012/8/26 13:37,1.7,5,1.7,5,3,6
2012/8/26 13:38,1.8,5,1.8,5,2.6,8
2012/8/26 13:39,1.8,5,1.8,5,2.6,6
2012/8/26 13:40,1.8,6,1.8,5,2.5,7
2012/8/26 13:41,1.9,6,1.9,6,3.1,6
2012/8/26 13:42,2,6,2,6,3.6,6
2012/8/26 13:43,2.1,6,2.1,6,4.2,6
2012/8/26 13:44,2.1,6,2.2,6,3.5,5
2012/8/26 13:45,2,6,2.1,6,3,5
2012/8/26 13:46,2,6,2,6,3.8,8
2012/8/26 13:47,2,6,2,6,2.6,5
2012/8/26 13:48,2,6,2,6,3.5,7
2012/8/26 13:49,2,6,2,6,2.5,4
2012/8/26 13:50,2,6,2,6,3.2,5
2012/8/26 13:51,2.1,6,2.2,6,3.5,5
2012/8/26 13:52,2.2,6,2.2,6,4.7,5
2012/8/26 13:53,2.2,6,2.2,6,4.5,4
2012/8/26 13:54,2,5,2.2,6,2.7,4
2012/8/26 13:55,1.9,5,2,6,2.7,8
2012/8/26 13:56,1.9,5,1.9,6,4.9,7
2012/8/26 13:57,2.1,5,2.1,6,5.1,7
2012/8/26 13:58,2.2,5,2.2,6,5.1,7
2012/8/26 13:59,2.2,5,2.2,6,3.6,6
2012/8/26 14:00,2.3,6,2.4,6,5.1,8
2012/8/26 14:01,2.4,6,2.4,6,5,6
2012/8/26 14:02,2.4,6,2.4,6,4.8,6
2012/8/26 14:03,2.4,6,2.4,6,4.4,7
2012/8/26 14:04,2.6,7,2.6,6,4.8,7
2012/8/26 14:05,2.7,7,2.7,7,3.1,10
2012/8/26 14:06,2.8,7,2.8,7,3.6,7
2012/8/26 14:07,2.6,7,2.7,7,4.1,9
2012/8/26 14:08,2.6,7,2.6,7,5.1,8
2012/8/26 14:09,2.7,7,2.7,7,5.1,9
2012/8/26 14:10,2.7,7,2.7,7,5.5,9
2012/8/26 14:11,2.7,7,2.8,7,5.1,8
2012/8/26 14:12,2.7,8,2.7,7,4.5,9
2012/8/26 14:13,2.7,8,2.7,7,5.4,9
2012/8/26 14:14,2.6,8,2.7,7,3.5,11
2012/8/26 14:15,2.6,8,2.6,7,3.8,7
2012/8/26 14:16,2.4,8,2.6,7,2.4,7
2012/8/26 14:17,2.4,9,2.4,7,3.9,9
2012/8/26 14:18,2.5,9,2.5,7,7,8
2012/8/26 14:19,2.6,9,2.6,7,7.4,10
2012/8/26 14:20,2.5,9,2.6,7,5.6,8
2012/8/26 14:21,2.5,8,2.6,7,4.4,8
2012/8/26 14:22,2.4,8,2.5,8,4.2,6
2012/8/26 14:23,2.3,8,2.4,8,4.2,7
2012/8/26 14:24,2.4,8,2.4,8,4.7,9
2012/8/26 14:25,2.5,8,2.5,8,9,9
2012/8/26 14:26,2.8,8,2.8,8,7.6,8
2012/8/26 14:27,3.1,8,3.1,8,8.2,8
2012/8/26 14:28,3.2,8,3.2,8,6.1,8
2012/8/26 14:29,3.2,8,3.2,8,6.4,8
2012/8/26 14:30,3.4,8,3.4,8,7.4,8
2012/8/26 14:31,3.7,8,3.7,8,8.7,8
2012/8/26 14:32,3.8,8,3.8,8,5.4,7
2012/8/26 14:33,3.8,8,3.8,8,4.8,9
2012/8/26 14:34,3.9,8,3.9,8,4.1,7
2012/8/26 14:35,3.8,8,3.8,8,4.3,8
2012/8/26 14:36,3.7,8,3.8,8,4.4,8
2012/8/26 14:37,3.6,8,3.6,8,5.7,7
2012/8/26 14:38,3.5,8,3.6,8,6.7,8
2012/8/26 14:39,3.5,8,3.6,8,5.8,7
2012/8/26 14:40,3.5,8,3.5,8,6.7,8
2012/8/26 14:41,3.4,8,3.5,8,6.4,8
2012/8/26 14:42,3.4,8,3.4,8,3.9,7
2012/8/26 14:43,3.2,8,3.3,8,2.9,8
2012/8/26 14:44,3.2,8,3.2,8,3.9,8
2012/8/26 14:45,3.2,8,3.2,8,4.4,8
2012/8/26 14:46,3.2,8,3.2,8,6.8,8
2012/8/26 14:47,3.1,8,3.3,8,5.7,10
2012/8/26 14:48,3.2,8,3.3,8,9.3,9
2012/8/26 14:49,3.1,8,3.2,8,5.1,10
2012/8/26 14:50,3,8,3,8,5.8,9
2012/8/26 14:51,2.8,9,3,8,5.1,9
2012/8/26 14:52,2.8,9,2.8,8,4.3,8
2012/8/26 14:53,2.9,9,2.9,8,4.2,9
2012/8/26 14:54,2.7,9,2.8,8,3.3,3
2012/8/26 14:55,2.6,9,2.7,8,3.7,9
2012/8/26 14:56,2.5,9,2.6,8,4.2,5
2012/8/26 14:57,2.4,8,2.5,8,3.5,7
2012/8/26 14:58,2.2,8,2.3,8,7.8,8
2012/8/26 14:59,2.4,8,2.4,8,7,8
2012/8/26 15:00,2.3,8,2.4,9,3.8,8
2012/8/26 15:01,2.3,8,2.3,9,4.2,8
2012/8/26 15:02,2.4,8,2.4,9,4.2,7
2012/8/26 15:03,2.5,7,2.5,9,4.1,7
2012/8/26 15:04,2.7,7,2.7,9,5.2,6
2012/8/26 15:05,2.8,7,2.8,7,5.4,8
2012/8/26 15:06,3,7,3,7,6.5,8
2012/8/26 15:07,3.2,7,3.2,7,5.1,6
2012/8/26 15:08,3.2,7,3.3,7,4.1,7
2012/8/26 15:09,3,7,3.1,7,4.1,8
2012/8/26 15:10,3,7,3,7,5,7
2012/8/26 15:11,3,7,3.1,7,4.9,7
2012/8/26 15:12,2.8,7,2.9,7,3.3,8
2012/8/26 15:13,2.7,7,2.8,7,2.9,9
2012/8/26 15:14,2.5,8,2.7,7,2.4,8
2012/8/26 15:15,2.6,8,2.6,7,6.9,8
2012/8/26 15:16,2.5,8,2.7,7,5.6,8
2012/8/26 15:17,2.3,8,2.5,7,4.8,8
2012/8/26 15:18,2.4,8,2.4,7,5.1,9
2012/8/26 15:19,2.4,8,2.4,7,6.3,8
2012/8/26 15:20,2.4,8,2.5,7,4.2,8
2012/8/26 15:21,2.5,8,2.5,7,4.7,9
2012/8/26 15:22,2.6,8,2.6,7,7.4,8
2012/8/26 15:23,2.9,8,2.9,8,7.8,8
2012/8/26 15:24,3,8,3,8,5.6,8
2012/8/26 15:25,2.8,8,3,8,4.9,9
2012/8/26 15:26,2.8,8,2.8,8,5.4,9
2012/8/26 15:27,2.8,9,2.8,8,5.8,10
2012/8/26 15:28,2.8,9,2.8,8,6.3,8
2012/8/26 15:29,2.6,9,2.8,8,3.9,8
2012/8/26 15:30,2.7,9,2.7,8,4.5,8
2012/8/26 15:31,2.7,9,2.7,8,5.7,9
2012/8/26 15:32,2.8,9,2.8,8,6,8
2012/8/26 15:33,2.8,9,2.9,8,6.4,8
2012/8/26 15:34,2.8,9,2.8,8,4.9,9
2012/8/26 15:35,2.8,9,2.9,9,5.7,9
2012/8/26 15:36,2.9,9,3,9,7.4,9
2012/8/26 15:37,2.9,9,2.9,9,5.4,8
2012/8/26 15:38,2.9,9,2.9,9,7.2,9
2012/8/26 18:34,1,6,1,6,1.1,7
2012/8/26 18:35,0.8,7,1,6,1.1,7
2012/8/26 18:36,0.6,6,0.8,6,1.3,6
2012/8/26 18:37,0.6,6,0.6,6,1.3,6
2012/8/26 18:38,0.7,6,0.7,6,1.8,7
2012/8/26 18:39,0.7,6,0.7,6,1.1,6
2012/8/26 18:40,0.7,6,0.7,6,1.6,5
2012/8/26 18:41,0.8,6,0.8,6,2.1,8
2012/8/26 18:42,0.8,6,0.8,6,2,8
2012/8/26 18:43,0.9,6,0.9,6,2.6,6
2012/8/26 18:44,1,6,1,7,2.2,5
2012/8/26 18:45,1.1,6,1.1,6,2.6,5
2012/8/26 18:46,1.2,6,1.2,6,2.2,6
2012/8/26 18:47,1.3,6,1.3,6,1.9,7
2012/8/26 18:48,1.3,6,1.3,6,1.4,4
2012/8/26 18:49,1.3,6,1.3,6,1.6,4
2012/8/26 18:50,1.3,5,1.3,6,1.8,3
2012/8/26 18:51,1.2,5,1.3,6,0.9,4
2012/8/26 18:52,1.2,5,1.3,6,1.5,2
2012/8/26 18:53,1.2,5,1.2,6,1.3,4
2012/8/26 18:54,1.1,4,1.2,6,1.3,5
2012/8/26 18:55,0.9,4,1,6,1.8,6
2012/8/26 18:56,0.9,4,0.9,6,2,5
2012/8/26 18:57,0.9,4,0.9,6,1.5,6
2012/8/26 18:58,0.8,4,0.9,6,1.4,3
2012/8/26 18:59,0.9,4,0.9,6,1.5,4
2012/8/26 19:00,0.9,4,0.9,5,1.5,3
2012/8/26 19:01,0.9,4,0.9,5,1.4,4
2012/8/26 19:02,0.9,4,0.9,5,1.9,4
2012/8/26 19:03,1,4,1,5,2.2,5
2012/8/26 19:04,1.1,5,1.1,5,1.8,3
2012/8/26 19:05,1.1,4,1.1,5,2,4
2012/8/26 19:06,1.2,4,1.2,4,2.1,3
2012/8/26 19:07,1.1,4,1.2,4,1.3,2
2012/8/26 19:08,1.2,4,1.2,4,1.8,2
2012/8/26 19:09,1.2,4,1.2,4,1.9,2
2012/8/26 19:10,1.2,3,1.2,4,1.5,3
2012/8/26 19:11,1.2,3,1.2,4,2.1,3
2012/8/26 19:12,1.2,3,1.2,4,2,3
2012/8/26 19:13,1.2,3,1.2,4,1.8,4
2012/8/26 19:14,1.2,3,1.2,4,2.6,3
2012/8/26 19:15,1.3,2,1.3,2,3.1,3
2012/8/26 19:16,1.3,3,1.3,2,2,3
2012/8/26 19:17,1.4,3,1.4,3,2.6,3
2012/8/26 19:18,1.4,3,1.4,3,2.1,3
2012/8/26 19:19,1.4,3,1.4,3,2.6,3
2012/8/26 19:20,1.5,3,1.5,3,2.4,3
2012/8/26 19:21,1.5,3,1.5,3,1.8,4
2012/8/26 19:22,1.4,3,1.5,3,1.8,5
2012/8/26 19:23,1.4,3,1.4,3,1.5,5
2012/8/26 19:24,1.3,3,1.4,3,1.9,5
2012/8/26 19:25,1.3,3,1.3,3,1.9,4
2012/8/26 19:26,1.3,3,1.3,3,2.2,3
2012/8/26 19:27,1.3,3,1.3,3,2.4,3
2012/8/26 19:28,1.3,3,1.3,3,2.2,4
2012/8/26 19:29,1.2,3,1.3,3,1.6,3
2012/8/26 19:30,1.2,3,1.2,3,1.4,4
2012/8/26 19:31,1.1,3,1.2,3,1.4,3
2012/8/26 19:32,1.2,3,1.2,3,1.9,2
2012/8/26 19:33,1.2,3,1.2,3,2.1,3
2012/8/26 19:34,1.3,3,1.3,3,2,4